This is the latest recevied weather packets stored in our database for station/object K5BOU. If no packets are shown the sender has not sent any weather packets the latest 10 day(s).
| Time | Temp. | Humidity | Pressure | Rain* | Wind** | Luminosity | Snow |
|---|---|---|---|---|---|---|---|
| 1777130116 | 26.67° C | 92% | 1006.4 hPa | 0 mm | - | 706 W/m² | - |
| 1777129813 | 26.67° C | 92% | 1006.3 hPa | 0 mm | - | 569 W/m² | - |
| 1777129507 | 26.67° C | 94% | 1006.4 hPa | 0 mm | - | 595 W/m² | - |
| 1777129206 | 26.11° C | 95% | 1006.4 hPa | 0 mm | - | 540 W/m² | - |
| 1777128903 | 26.67° C | 95% | 1006.3 hPa | 0 mm | - | 558 W/m² | - |
| 1777128599 | 26.11° C | 96% | 1006.4 hPa | 0 mm | - | 310 W/m² | - |
| 1777128297 | 26.11° C | 97% | 1006.5 hPa | 0 mm | - | 363 W/m² | - |
| 1777127994 | 25.56° C | 98% | 1006.3 hPa | 0 mm | - | 560 W/m² | - |
| 1777127691 | 25° C | 99% | 1006.4 hPa | 0 mm | - | 390 W/m² | - |
| 1777127388 | 25° C | 99% | 1006.5 hPa | 0 mm | - | 242 W/m² | - |
| 1777127084 | 25° C | 99% | 1006.5 hPa | 0 mm | - | 271 W/m² | - |
| 1777126780 | 25° C | 99% | 1006.9 hPa | 0 mm | - | 221 W/m² | - |
| 1777126476 | 24.44° C | 99% | 1006.8 hPa | 0 mm | - | 233 W/m² | - |
| 1777126172 | 24.44° C | 99% | 1007.3 hPa | 0 mm | - | 146 W/m² | - |
| 1777125868 | 24.44° C | 99% | 1007.1 hPa | 0 mm | - | 108 W/m² | - |
| 1777125565 | 23.89° C | 99% | 1007.1 hPa | 0 mm | - | 99 W/m² | - |
| 1777125260 | 23.89° C | 99% | 1007.1 hPa | 0 mm | - | 95 W/m² | - |
| 1777124960 | 23.89° C | 99% | 1007 hPa | 0 mm | - | 77 W/m² | - |
| 1777124658 | 23.89° C | 99% | 1007.3 hPa | 0 mm | - | 62 W/m² | - |
| 1777124352 | 23.89° C | 99% | 1007.2 hPa | 0 mm | - | 35 W/m² | - |
| 1777124050 | 23.89° C | 99% | 1007 hPa | 0 mm | - | 37 W/m² | - |
| 1777123746 | 23.89° C | 99% | 1007.1 hPa | 0 mm | - | 39 W/m² | - |
| 1777123443 | 23.89° C | 99% | 1007 hPa | 0 mm | - | 38 W/m² | - |
| 1777123138 | 23.89° C | 99% | 1006.9 hPa | 0 mm | - | 36 W/m² | - |
| 1777122835 | 23.89° C | 99% | 1006.9 hPa | 0 mm | - | 35 W/m² | - |
* Rain latest hour (hover to see other rain measurements)
** Current wind speed in m/s (hover to see current wind gust speed)